Location: Feigenhofen
(48.4939°N, 10.7793°E)
Time: 22:41:27
(UTC+00:00)

ATLAS 5 CENTAUR R/B - Pass Details

Date: 26 May 2022
Orbit: 340 x 13897 km, 60.8° (Epoch: 21 June)

Event Time Altitude Azimuth Distance (km) Brightness Sun altitude
Rises 00:02:41 0° 316° (NW) 8,656 8.4 -19.6°
Reaches altitude 10° 00:10:39 10° 314° (NW) 5,677 7.3 -19.3°
Maximum altitude 00:21:56 48° 245° (WSW) 1,283 3.3 -18.8°
Enters shadow 00:23:33 35° 196° (SSW) 1,278 3.1 -18.7°
